N8ASV Weather Reports


time (UTC)temp
F
wind
direction
speed
knots
gust
knots
rain 1hr
in
rain 24hr
in
rain mn
in
humidity
%
barometer
mb
20260503184516 63 203 4.3 15.6 0.00 0.00 0.00 42 1014.8
20260503183517 62 248 2.6 5.2 0.00 0.00 0.00 45 1015.0
20260503182517 61 225 1.7 6.1 0.00 0.00 0.00 41 1015.2
20260503181557 61 225 2.6 5.2 0.00 0.00 0.00 39 1015.1
20260503180517 62 248 2.6 4.3 0.00 0.00 0.00 39 1015.4
20260503175517 62 203 3.5 10.4 0.00 0.00 0.00 40 1015.2
20260503174516 62 180 2.6 5.2 0.00 0.00 0.00 40 1015.3
20260503173516 61 248 3.5 9.6 0.00 0.00 0.00 37 1015.6
20260503172516 62 225 3.5 7.8 0.00 0.00 0.00 38 1015.8
20260503171516 62 203 3.5 7.8 0.00 0.00 0.00 37 1015.9
20260503170516 61 248 2.6 5.2 0.00 0.00 0.00 42 1016.2
20260503150516 57 225 2.6 4.3 0.00 0.00 0.00 48 1017.7
20260503130517 45 158 2.6 4.3 0.00 0.00 0.00 73 1018.0
20260503110537 31 0.0 0.0 0.00 0.00 0.00 92 1017.4
20260503081516 31 0.0 0.0 0.00 0.00 0.00 90 1016.8
20260503080516 31 0.0 0.0 0.00 0.00 0.00 91 1016.8
20260503072516 31 0.0 0.0 0.00 0.00 0.00 90 1016.8
20260503071516 31 0.0 0.0 0.00 0.00 0.00 90 1016.8
20260503070516 31 0.0 0.0 0.00 0.00 0.00 89 1016.8
20260503054516 33 0.0 0.0 0.00 0.00 0.00 89 1017.3
20260503053516 33 0.0 0.0 0.00 0.00 0.00 89 1017.2
20260503052516 33 0.0 0.0 0.00 0.00 0.00 88 1017.1
20260503051516 33 0.0 0.0 0.00 0.00 0.00 88 1017.1
20260503050556 34 0.0 0.0 0.00 0.00 0.00 88 1017.2
20260503045515 34 0.0 0.0 0.00 0.00 0.00 88 1017.1
20260503044515 34 0.0 0.0 0.00 0.00 0.00 88 1017.0
20260503043515 34 0.0 0.0 0.00 0.00 0.00 87 1017.0
20260503042536 34 0.0 0.0 0.00 0.00 0.00 86 1017.0
20260503041515 35 0.0 0.0 0.00 0.00 0.00 86 1017.1
20260503040538 35 0.0 0.0 0.00 0.00 0.00 87 1017.0
20260503035517 35 0.0 0.0 0.00 0.00 0.00 85 1017.1
20260503034517 36 0.0 0.0 0.00 0.00 0.00 86 1017.1
20260503033517 36 0.0 0.0 0.00 0.00 0.00 85 1017.2
20260503032537 36 0.0 0.0 0.00 0.00 0.00 84 1017.2
20260503031537 37 0.0 0.0 0.00 0.00 0.00 84 1017.2
20260503030537 37 0.0 0.0 0.00 0.00 0.00 83 1017.2
20260503025557 37 0.0 0.0 0.00 0.00 0.00 83 1017.2
20260503024517 38 0.0 0.0 0.00 0.00 0.00 82 1017.1
20260503023517 38 0.0 0.0 0.00 0.00 0.00 81 1017.0
20260503022537 38 0.0 0.0 0.00 0.00 0.00 80 1017.0
20260503021517 39 0.0 0.0 0.00 0.00 0.00 80 1016.8
20260503020537 39 0.0 0.0 0.00 0.00 0.00 78 1016.7
20260503015517 40 0.0 0.0 0.00 0.00 0.00 76 1016.8
20260503014517 40 0.0 0.0 0.00 0.00 0.00 75 1016.7
20260503013517 41 0.0 0.0 0.00 0.00 0.00 74 1016.6
20260503012517 42 0.0 0.0 0.00 0.00 0.00 73 1016.6
20260503011517 43 0.0 0.0 0.00 0.00 0.00 72 1016.4
20260503010516 44 0.0 0.0 0.00 0.00 0.00 69 1016.3
20260503005517 45 0.0 0.0 0.00 0.00 0.00 65 1016.2
20260503004517 47 0.0 0.0 0.00 0.00 0.00 62 1016.1
20260503003516 47 0.0 0.9 0.00 0.00 0.00 57 1016.1
20260503002516 48 0 1.7 4.3 0.00 0.00 0.00 53 1015.9
20260503001516 49 338 1.7 4.3 0.00 0.00 0.00 53 1015.7
20260503000516 49 338 1.7 6.1 0.00 0.00 0.00 50 1015.7
20260502235516 50 338 1.7 3.5 0.00 0.00 0.00 48 1015.7
20260502234516 50 0 2.6 6.1 0.00 0.00 0.00 49 1015.6
20260502233516 51 315 0.9 3.5 0.00 0.00 0.00 51 1015.6
20260502232516 51 315 1.7 6.1 0.00 0.00 0.00 47 1015.6
20260502231516 51 315 2.6 5.2 0.00 0.00 0.00 46 1015.6
20260502230516 51 315 2.6 5.2 0.00 0.00 0.00 46 1015.4
20260502225516 52 338 2.6 5.2 0.00 0.00 0.00 46 1015.4
20260502224516 52 338 2.6 6.1 0.00 0.00 0.00 46 1015.4
20260502223516 52 315 1.7 6.1 0.00 0.00 0.00 46 1015.3
20260502222516 52 270 0.9 4.3 0.00 0.00 0.00 45 1015.3
20260502221536 53 315 1.7 5.2 0.00 0.00 0.00 43 1015.4
20260502220516 53 315 2.6 6.1 0.00 0.00 0.00 44 1015.3
20260502215516 53 0 4.3 10.4 0.00 0.00 0.00 42 1015.2
20260502214516 53 315 2.6 4.3 0.00 0.00 0.00 44 1015.2
20260502213516 53 293 1.7 5.2 0.00 0.00 0.00 47 1015.1
20260502212536 53 293 1.7 4.3 0.00 0.00 0.00 42 1015.1
20260502211516 53 315 2.6 5.2 0.00 0.00 0.00 47 1015.0
20260502210516 53 338 2.6 8.7 0.00 0.00 0.00 46 1015.0
20260502205516 54 270 1.7 3.5 0.00 0.00 0.00 46 1014.9
20260502204516 54 315 2.6 8.7 0.00 0.00 0.00 44 1015.0
20260502203515 54 0 2.6 9.6 0.00 0.00 0.00 44 1015.1
20260502202516 55 0 3.5 11.3 0.00 0.00 0.00 42 1015.0
20260502201516 54 338 2.6 5.2 0.00 0.00 0.00 43 1015.2
20260502200557 54 293 2.6 9.6 0.00 0.00 0.00 43 1015.3
20260502195517 53 0 1.7 7.8 0.00 0.00 0.00 45 1015.2
20260502194517 54 293 2.6 6.1 0.00 0.00 0.00 39 1015.4
20260502193517 55 0 4.3 8.7 0.00 0.00 0.00 42 1015.3
20260502192537 54 293 2.6 5.2 0.00 0.00 0.00 45 1015.3
20260502191537 55 315 2.6 4.3 0.00 0.00 0.00 44 1015.5
20260502190517 54 338 3.5 12.2 0.00 0.00 0.00 43 1015.5
20260502185537 54 0 3.5 8.7 0.00 0.00 0.00 40 1015.8